PRAETORIAN SDA_607

Last updated on Wed Aug 19 2026 00:03:42 GMT+0000 (Coordinated Universal Time)

1 65570U 25203F 26229.98644205 .00000107 00000+0 85676-4 0 9997 2 65570 81.3060 313.4514 0009312 32.1933 327.9791 13.83761739 47254
UTC large
Height (km)
Speed (km/s)
/
Latitude / Longitude
Inclination (degrees)
Orbital Period (minutes)
Azimuth
Elevation
Range (km)
Doppler Factor

Next 0 passes for location: London (51.5072 / 0.1276)

No passes found over London.
PRAETORIAN SDA_607